Regional Weather Roundup
Issued by NWS Green Bay, WI

Home | Current Version | Previous Version | Text Only | Print | Product List | Glossary On
Versions: 1 2 3 4 5 6 7 8 9 10 11 12 13 14 15 16 17 18 19 20 21 22 23 24 25 26 27 28 29 30 31 32 33 34 35 36 37 38 39 40 41 42 43 44 45 46 47 48 49 50
914
ASUS43 KGRB 060611
RWRGRB

NORTH-CENTRAL AND NORTHEAST WISCONSIN REGIONAL WEATHER ROUNDUP
NATIONAL WEATHER SERVICE GREEN BAY WI
1200 AM CST SAT FEB 06 2016

WIZ005-009-010>012-018-019-060700-
NORTH CENTRAL WISCONSIN

CITY           SKY/WX    TMP DP  RH WIND       PRES   REMARKS
IRONWOOD       CLOUDY    21  16  79 SW14      30.05F WCI   8
MANITOWISH WTR FLURRIES  19  16  85 SW9       30.07F WCI   9
ARBOR VITAE    LGT SNOW  22  17  83 SW7       30.08F
EAGLE RIVER    LGT SNOW  20  14  76 SW13      30.07S WCI   8
LAND O LAKES   LGT SNOW  21  16  83 SW7       30.07F
RHINELANDER    LGT SNOW  20  14  77 SW12      30.09F WCI   8
PHILLIPS       FLURRIES  20  16  84 SW7       30.10F
ANTIGO         FLURRIES  20  15  79 SW14      30.13F WCI   7
TOMAHAWK       LGT SNOW  21  15  79 SW3       30.12F
MERRILL        FLURRIES  21  17  82 SW8       30.15F
$$

WIZ013-073-060700-
NORTHEAST WISCONSIN

CITY           SKY/WX    TMP DP  RH WIND       PRES   REMARKS
IRON MOUNTAIN  CLOUDY    25  10  53 SW9G17    30.08F
MARINETTE      CLOUDY    21  16  79 SW8       30.17F
OCONTO         CLOUDY    22  18  81 SW6       30.19F
$$

WIZ017-030-035>037-045-060700-
CENTRAL WISCONSIN

CITY           SKY/WX    TMP DP  RH WIND       PRES   REMARKS
MEDFORD        FLURRIES  20  16  82 SW8       30.13F
WAUSAU         FLURRIES  23  15  71 SW9       30.14F
MOSINEE        FLURRIES  21  18  86 SW9       30.18F
MARSHFIELD     CLOUDY    23  14  68 SW12      30.16F
WISC RAPIDS    CLOUDY    23  15  71 SW8       30.22F
STEVENS POINT  FLURRIES  22  15  76 SW8       30.20F
WAUPACA        CLOUDY    26  19  72 SW6       30.23R
SHAWANO        CLOUDY    25  18  74 SW7       30.20F
CLINTONVILLE   CLOUDY    25  18  74 SW8       30.21F
WAUTOMA        CLOUDY    24  17  74 SW7       30.24S
$$

WIZ038-039-048-051-060700-
FOX VALLEY

CITY           SKY/WX    TMP DP  RH WIND       PRES   REMARKS
NWS GREEN BAY  CLOUDY    23  17  78 S9        30.21F
APPLETON       CLOUDY    25  18  74 SW10      30.20F
OSHKOSH        CLOUDY    24  15  68 SW6       30.23S
FOND DU LAC    CLOUDY    25  17  72 SW8       30.24S
$$

WIZ022-050-052-060700-
EAST CENTRAL WISCONSIN

CITY           SKY/WX    TMP DP  RH WIND       PRES   REMARKS
EPHRAIM        CLOUDY    24  17  74 SW12G20   30.16F
STURGEON BAY   CLOUDY    25  16  68 SW10      30.22S
MANITOWOC      CLOUDY    26  18  71 W8        30.23F
SHEBOYGAN      CLOUDY    26  16  65 SW9       30.23F
$$

LMZ563-521-522-541>543-060700-
LAKESHORE

STATION/POSITION TIME  TEMP    WIND        PRES    VSBY  WAVE
                       AIR SEA DIR/SP/G                  HT/PER
                 (UTC) (F)     (DEG/KT/KT) (MB)    (MI)  (FT/S)
SHEBOYGAN LKSHOR 0600   27     250/  9/ 11 1025.1F
KEWAUNEE LKSHORE 0500   25     260/ 10/ 12 1022.8F
ALGOMA MARINA    0511          270/  7/  9   N/A
CHAMBERS ISLAND  0500   23     200/  8/ 14 1022.7F
MENOMINEE LKSHOR 0500   23     220/  9     1021.5F
$$




USA.gov is the U.S. government's official web portal to all federal, state and local government web resources and services.